| time (UTC) | temp C | wind direction | speed KPH | gust KPH | rain 1hr cm | rain 24hr cm | rain mn cm | humidity % | barometer mb |
| 20260503200520 | 22 | 0.0 | 4.8 | 0.00 | 0.00 | 0.00 | 33 | 1003.2 | |
| 20260503195520 | 22 | 0.0 | 9.7 | 0.00 | 0.00 | 0.00 | 34 | 1003.3 | |
| 20260503194544 | 21 | 0.0 | 3.2 | 0.00 | 0.00 | 0.00 | 38 | 1003.5 | |
| 20260503193518 | 21 | 0.0 | 8.0 | 0.00 | 0.00 | 0.00 | 37 | 1003.6 | |
| 20260503192538 | 21 | 248 | 1.6 | 6.4 | 0.00 | 0.00 | 0.00 | 36 | 1003.7 |
| 20260503191538 | 21 | 180 | 3.2 | 12.9 | 0.00 | 0.00 | 0.00 | 35 | 1003.9 |
| 20260503190529 | 21 | 0.0 | 8.0 | 0.00 | 0.00 | 0.00 | 37 | 1003.9 | |
| 20260503185518 | 21 | 0.0 | 8.0 | 0.00 | 0.00 | 0.00 | 44 | 1004.0 | |
| 20260503184803 | 21 | 0.0 | 4.8 | 0.00 | 0.00 | 0.00 | 36 | 1003.9 | |
| 20260503183550 | 21 | 0.0 | 9.7 | 0.00 | 0.00 | 0.00 | 36 | 1003.8 | |
| 20260503182518 | 21 | 0.0 | 9.7 | 0.00 | 0.00 | 0.00 | 38 | 1004.2 | |
| 20260503181540 | 20 | 0.0 | 4.8 | 0.00 | 0.00 | 0.00 | 39 | 1004.2 | |
| 20260503180518 | 20 | 225 | 1.6 | 17.7 | 0.00 | 0.00 | 0.00 | 41 | 1004.2 |
| 20260503175529 | 20 | 0.0 | 1.6 | 0.00 | 0.00 | 0.00 | 40 | 1004.4 | |
| 20260503174557 | 20 | 225 | 1.6 | 9.7 | 0.00 | 0.00 | 0.00 | 38 | 1004.5 |
| 20260503173520 | 20 | 0.0 | 3.2 | 0.00 | 0.00 | 0.00 | 39 | 1004.6 | |
| 20260503172537 | 20 | 0.0 | 6.4 | 0.00 | 0.00 | 0.00 | 42 | 1004.9 | |
| 20260503171520 | 19 | 158 | 1.6 | 16.1 | 0.00 | 0.00 | 0.00 | 42 | 1005.1 |
| 20260503170537 | 19 | 203 | 1.6 | 8.0 | 0.00 | 0.00 | 0.00 | 40 | 1005.3 |
| 20260503150600 | 16 | 0.0 | 6.4 | 0.00 | 0.00 | 0.00 | 51 | 1006.0 | |
| 20260503130528 | 12 | 0.0 | 1.6 | 0.00 | 0.00 | 0.00 | 58 | 1007.6 | |
| 20260503110520 | 8 | 0.0 | 1.6 | 0.00 | 0.00 | 0.00 | 60 | 1007.4 | |
| 20260503081545 | 9 | 0.0 | 4.8 | 0.00 | 0.00 | 0.00 | 56 | 1009.7 | |
| 20260503080539 | 10 | 0.0 | 3.2 | 0.00 | 0.00 | 0.00 | 56 | 1009.8 | |
| 20260503072519 | 10 | 0.0 | 0.0 | 0.00 | 0.00 | 0.00 | 54 | 1009.9 | |
| 20260503071520 | 10 | 0.0 | 4.8 | 0.00 | 0.00 | 0.00 | 55 | 1009.9 | |
| 20260503070548 | 10 | 225 | 1.6 | 4.8 | 0.00 | 0.00 | 0.00 | 55 | 1010.0 |
| 20260503054519 | 8 | 0.0 | 0.0 | 0.00 | 0.00 | 0.00 | 61 | 1010.5 | |
| 20260503053528 | 8 | 0.0 | 0.0 | 0.00 | 0.00 | 0.00 | 58 | 1010.6 | |
| 20260503052528 | 8 | 0.0 | 0.0 | 0.00 | 0.00 | 0.00 | 60 | 1010.8 | |
| 20260503051527 | 8 | 0.0 | 1.6 | 0.00 | 0.00 | 0.00 | 60 | 1010.8 | |
| 20260503050528 | 8 | 0.0 | 0.0 | 0.00 | 0.00 | 0.00 | 58 | 1010.9 | |
| 20260503045519 | 8 | 0.0 | 0.0 | 0.00 | 0.00 | 0.00 | 59 | 1010.9 | |
| 20260503044547 | 8 | 0.0 | 0.0 | 0.00 | 0.00 | 0.00 | 61 | 1011.0 | |
| 20260503043536 | 8 | 0.0 | 0.0 | 0.00 | 0.00 | 0.00 | 64 | 1011.1 | |
| 20260503042539 | 8 | 0.0 | 1.6 | 0.00 | 0.00 | 0.00 | 62 | 1011.1 | |
| 20260503041528 | 8 | 0.0 | 0.0 | 0.00 | 0.00 | 0.00 | 68 | 1011.3 | |
| 20260503040519 | 8 | 0.0 | 0.0 | 0.00 | 0.00 | 0.00 | 67 | 1011.4 | |
| 20260503035536 | 8 | 0.0 | 0.0 | 0.00 | 0.00 | 0.00 | 66 | 1011.3 | |
| 20260503034519 | 8 | 0.0 | 0.0 | 0.00 | 0.00 | 0.00 | 61 | 1011.4 | |
| 20260503033518 | 8 | 0.0 | 1.6 | 0.00 | 0.00 | 0.00 | 64 | 1011.6 | |
| 20260503032519 | 7 | 0.0 | 0.0 | 0.00 | 0.00 | 0.00 | 69 | 1011.6 | |
| 20260503031519 | 7 | 0.0 | 0.0 | 0.00 | 0.00 | 0.00 | 70 | 1011.8 | |
| 20260503030527 | 7 | 0.0 | 0.0 | 0.00 | 0.00 | 0.00 | 69 | 1012.0 | |
| 20260503025539 | 7 | 0.0 | 0.0 | 0.00 | 0.00 | 0.00 | 69 | 1012.0 | |
| 20260503024536 | 7 | 0.0 | 0.0 | 0.00 | 0.00 | 0.00 | 69 | 1012.1 | |
| 20260503023545 | 7 | 0.0 | 0.0 | 0.00 | 0.00 | 0.00 | 65 | 1012.0 | |
| 20260503022519 | 7 | 0.0 | 0.0 | 0.00 | 0.00 | 0.00 | 61 | 1012.0 | |
| 20260503021528 | 7 | 0.0 | 0.0 | 0.00 | 0.00 | 0.00 | 60 | 1012.0 | |
| 20260503020519 | 7 | 0.0 | 0.0 | 0.00 | 0.00 | 0.00 | 60 | 1012.1 | |
| 20260503015541 | 8 | 0.0 | 0.0 | 0.00 | 0.00 | 0.00 | 56 | 1012.1 | |
| 20260503014539 | 8 | 0.0 | 0.0 | 0.00 | 0.00 | 0.00 | 51 | 1012.2 | |
| 20260503013519 | 8 | 0.0 | 0.0 | 0.00 | 0.00 | 0.00 | 50 | 1012.1 | |
| 20260503012519 | 9 | 0.0 | 0.0 | 0.00 | 0.00 | 0.00 | 50 | 1012.0 | |
| 20260503011539 | 10 | 0.0 | 0.0 | 0.00 | 0.00 | 0.00 | 47 | 1012.0 | |
| 20260503010600 | 10 | 0.0 | 0.0 | 0.00 | 0.00 | 0.00 | 45 | 1012.1 | |
| 20260503005519 | 11 | 0.0 | 0.0 | 0.00 | 0.00 | 0.00 | 43 | 1012.0 | |
| 20260503004527 | 11 | 0.0 | 0.0 | 0.00 | 0.00 | 0.00 | 43 | 1011.9 | |
| 20260503003519 | 12 | 0.0 | 0.0 | 0.00 | 0.00 | 0.00 | 42 | 1012.0 | |
| 20260503002518 | 12 | 0.0 | 0.0 | 0.00 | 0.00 | 0.00 | 39 | 1011.8 | |
| 20260503001519 | 12 | 0.0 | 0.0 | 0.00 | 0.00 | 0.00 | 39 | 1011.8 | |
| 20260503000527 | 13 | 0.0 | 4.8 | 0.00 | 0.00 | 0.00 | 39 | 1011.9 | |
| 20260502235518 | 13 | 0.0 | 3.2 | 0.00 | 0.00 | 0.00 | 38 | 1011.8 | |
| 20260502234527 | 13 | 0.0 | 4.8 | 0.00 | 0.00 | 0.00 | 33 | 1011.9 | |
| 20260502233518 | 14 | 0.0 | 6.4 | 0.00 | 0.00 | 0.00 | 34 | 1011.9 | |
| 20260502232530 | 14 | 0.0 | 0.0 | 0.00 | 0.00 | 0.00 | 33 | 1012.0 | |
| 20260502231518 | 14 | 0.0 | 6.4 | 0.00 | 0.00 | 0.00 | 33 | 1012.0 | |
| 20260502230519 | 14 | 0.0 | 3.2 | 0.00 | 0.00 | 0.00 | 34 | 1012.1 | |
| 20260502225518 | 15 | 0.0 | 4.8 | 0.00 | 0.00 | 0.00 | 32 | 1012.3 | |
| 20260502224559 | 15 | 0.0 | 1.6 | 0.00 | 0.00 | 0.00 | 32 | 1012.4 | |
| 20260502223518 | 15 | 0.0 | 4.8 | 0.00 | 0.00 | 0.00 | 32 | 1012.6 | |
| 20260502222519 | 15 | 0.0 | 3.2 | 0.00 | 0.00 | 0.00 | 31 | 1012.5 | |
| 20260502221544 | 15 | 0.0 | 4.8 | 0.00 | 0.00 | 0.00 | 31 | 1012.6 | |
| 20260502220518 | 15 | 0.0 | 1.6 | 0.00 | 0.00 | 0.00 | 31 | 1012.6 | |
| 20260502215527 | 15 | 0.0 | 3.2 | 0.00 | 0.00 | 0.00 | 33 | 1012.6 | |
| 20260502214547 | 15 | 0.0 | 6.4 | 0.00 | 0.00 | 0.00 | 33 | 1012.9 | |
| 20260502213544 | 16 | 0.0 | 0.0 | 0.00 | 0.00 | 0.00 | 29 | 1013.0 | |
| 20260502212518 | 16 | 0.0 | 3.2 | 0.00 | 0.00 | 0.00 | 31 | 1013.1 | |
| 20260502211518 | 16 | 0.0 | 6.4 | 0.00 | 0.00 | 0.00 | 31 | 1013.2 | |
| 20260502210518 | 16 | 248 | 1.6 | 9.7 | 0.00 | 0.00 | 0.00 | 30 | 1013.3 |
| 20260502205538 | 16 | 0.0 | 1.6 | 0.00 | 0.00 | 0.00 | 31 | 1013.4 | |
| 20260502204519 | 16 | 225 | 1.6 | 12.9 | 0.00 | 0.00 | 0.00 | 34 | 1013.6 |
| 20260502203539 | 16 | 225 | 1.6 | 11.3 | 0.00 | 0.00 | 0.00 | 30 | 1013.8 |
| 20260502202518 | 16 | 225 | 1.6 | 9.7 | 0.00 | 0.00 | 0.00 | 29 | 1014.0 |
| 20260502201518 | 16 | 0.0 | 3.2 | 0.00 | 0.00 | 0.00 | 30 | 1013.9 |